Wind_Speed
30 30 30 29 28 27 26 26 25 26 26 26 25 23 22 22 21 22 22 22 23 23 23 23 24 24 25 25 25 26 28 28 28 27 25 24 25 27 28 29 29 30 30 30 30 30 31 32 33 34 35 37 38 39 40 41 42 42 42 43 43 43 43 42 39 34 29 25 24 24 26 27 26 24 23 25 28 31 35 38 40 41 43 43 44
29 29 29 29 28 28 28 28 28 27 27 27 27 26 25 25 25 26 26 25 25 25 25 26 26 27 27 27 28 28 30 30 30 28 27 26 26 27 29 31 31 31 32 32 32 32 33 34 34 35 37 38 39 41 42 43 44 45 45 45 45 45 45 44 41 37 32 28 24 24 26 27 26 23 21 23 27 30 34 37 40 42 44 44 44
30 29 29 29 29 29 29 29 29 28 29 28 28 27 27 27 28 29 29 28 28 28 27 28 29 29 29 30 30 30 31 31 31 30 29 28 28 29 31 32 33 33 33 34 35 35 35 35 36 37 38 40 41 42 43 44 45 46 47 47 47 47 47 46 44 39 34 30 27 26 26 27 27 24 21 23 26 30 34 37 39 43 45 46 46
31 31 31 30 30 30 30 30 30 30 29 28 27 27 28 29 30 30 31 31 31 31 30 30 31 30 31 31 31 31 32 32 32 31 30 30 30 30 32 34 35 36 35 36 37 37 37 38 38 39 40 41 43 44 45 46 46 47 48 49 49 49 49 48 45 41 36 33 31 30 29 28 28 26 23 24 27 31 34 37 40 43 46 47 47
32 32 32 31 31 32 32 31 31 30 28 27 27 28 29 30 31 31 31 31 32 33 32 32 32 32 32 32 32 32 32 33 33 32 32 33 33 33 34 35 37 38 37 37 38 40 40 40 40 41 42 43 44 45 47 47 48 49 50 50 50 50 50 49 47 43 38 34 33 33 32 30 29 28 25 25 28 32 35 38 40 43 46 48 48
33 33 32 32 33 33 33 32 31 30 28 28 28 28 29 30 30 31 31 32 33 33 33 33 33 33 33 33 33 33 33 34 34 34 34 34 35 36 36 37 38 39 39 39 40 42 43 43 43 43 44 45 46 47 48 49 50 50 51 52 52 52 52 51 49 45 40 36 34 34 33 32 31 31 28 26 29 32 35 38 41 43 46 48 49
34 34 33 34 35 35 34 33 32 31 30 30 30 30 30 31 31 31 32 33 34 34 34 34 34 34 34 34 35 35 35 36 36 36 36 36 37 38 39 39 39 40 41 41 42 44 45 45 46 46 47 48 49 50 50 51 51 52 53 53 53 53 53 53 50 46 42 39 35 33 33 32 32 33 30 27 29 33 35 37 41 43 45 48 50
36 35 35 35 37 37 36 34 33 32 32 32 32 32 32 32 33 33 33 34 34 35 35 35 35 36 36 36 36 36 36 37 38 38 37 38 39 40 41 42 41 42 43 44 45 46 48 49 49 50 50 51 52 52 53 53 53 54 54 55 55 55 55 54 52 47 42 40 37 34 33 32 33 33 30 26 29 33 35 37 40 42 45 48 51
37 36 35 36 37 37 35 34 33 33 34 34 34 34 34 34 35 35 35 35 36 36 37 38 38 38 38 38 38 38 38 38 39 39 40 40 40 41 42 43 44 45 45 46 47 49 50 51 52 52 53 54 55 55 56 56 55 56 56 57 56 56 56 55 52 47 43 41 39 36 34 32 32 33 29 26 28 33 35 37 40 41 44 48 51
38 37 36 37 38 37 36 35 35 35 36 37 37 36 36 37 37 37 37 38 38 39 40 40 40 40 39 39 39 39 39 40 40 41 41 42 42 43 44 45 46 47 48 49 50 51 52 54 54 55 55 56 57 58 58 58 58 58 58 59 58 57 56 55 52 48 43 41 39 36 34 33 32 31 28 26 28 32 35 38 41 42 45 48 51
39 38 38 38 38 38 37 36 36 38 39 39 39 39 39 39 39 40 40 40 41 41 42 41 41 40 40 40 40 41 41 41 42 42 43 44 45 45 46 47 49 50 51 52 53 54 55 55 56 57 58 59 59 60 60 60 60 60 61 61 60 58 56 53 50 47 43 40 38 36 34 33 32 30 27 26 29 32 34 38 41 44 46 49 52
40 39 39 39 40 39 38 38 38 40 40 41 40 40 41 41 42 42 42 42 42 42 42 41 41 41 42 42 43 43 43 44 44 44 45 46 47 48 49 50 52 53 54 55 56 57 58 58 59 60 61 62 62 61 62 62 61 62 62 62 60 58 54 51 48 46 43 39 37 36 34 33 32 29 27 27 29 33 35 38 41 44 46 50 54
40 40 40 41 42 41 40 41 42 43 42 42 42 42 43 43 43 43 43 43 43 43 43 43 43 43 44 44 45 45 46 46 47 47 48 48 49 51 52 54 55 56 57 58 59 60 61 62 62 62 63 64 64 64 64 63 63 63 63 62 59 55 51 47 45 44 41 37 36 35 34 32 30 27 26 27 30 34 37 39 42 44 47 51 54
41 41 42 43 43 43 43 44 45 45 44 44 44 44 44 44 44 44 44 44 44 44 44 45 45 45 46 47 47 48 49 49 50 51 51 52 53 54 55 57 59 60 61 61 62 63 64 65 65 65 65 65 65 66 65 64 63 62 61 59 55 51 47 45 43 42 39 35 34 34 32 30 28 26 26 28 31 35 40 42 43 45 48 52 55
44 44 45 45 45 45 45 46 46 45 45 45 45 46 46 46 47 46 46 46 47 47 47 48 48 48 48 49 50 51 52 53 54 54 55 56 56 57 58 59 61 63 65 65 65 66 66 66 66 66 66 66 67 67 65 62 60 58 55 54 50 46 44 42 40 39 36 33 32 31 30 28 25 26 28 30 33 38 42 44 44 45 49 53 56
47 48 48 48 47 47 47 47 47 47 47 47 48 49 49 49 49 49 49 49 50 51 51 51 51 51 52 53 53 55 55 56 57 58 59 60 60 61 62 62 63 65 67 67 67 67 66 66 65 65 64 65 66 65 61 58 54 50 47 47 45 42 40 38 36 35 33 31 30 29 27 26 25 27 29 31 35 40 44 44 43 46 49 53 57
50 50 50 50 49 49 49 49 49 49 49 50 51 52 51 51 51 52 52 53 54 54 55 55 55 56 56 57 57 58 58 59 60 62 63 64 64 64 65 65 65 65 66 65 65 64 63 62 61 61 61 61 61 60 56 52 46 41 40 40 39 37 36 35 33 32 30 29 29 26 24 24 26 29 30 33 37 42 44 44 45 47 49 53 57
53 53 53 52 52 52 52 52 53 53 53 54 55 55 54 54 55 55 56 56 56 57 58 58 59 60 60 61 61 61 61 62 62 63 64 65 65 64 64 63 61 60 59 59 58 57 57 57 56 56 57 56 55 54 52 48 40 33 33 35 34 32 32 31 31 31 29 28 27 25 24 25 27 30 32 34 39 43 46 47 47 49 50 53 57
56 56 55 55 55 56 56 56 56 57 57 58 58 58 57 58 58 58 59 59 59 59 60 61 61 62 62 61 60 60 59 58 57 58 58 58 58 58 57 55 54 53 53 52 52 51 50 51 51 52 53 52 49 47 47 45 35 26 25 29 30 28 28 29 30 31 30 27 24 25 27 28 29 31 34 37 41 45 48 50 50 52 54 56 59
55 55 55 55 55 56 56 56 56 56 57 57 57 57 57 57 57 57 57 57 56 56 56 55 55 55 56 55 53 52 52 51 49 50 51 52 52 52 52 51 51 51 49 49 49 47 47 47 47 48 49 49 45 41 41 41 33 22 20 25 27 26 26 28 29 30 30 29 26 26 29 30 31 33 36 39 43 47 50 51 53 55 57 59 61
50 50 50 50 50 50 50 50 50 50 50 51 51 51 51 50 50 50 50 49 49 48 48 47 47 48 48 48 48 47 47 47 46 46 47 49 50 50 50 50 51 50 48 47 46 45 45 45 44 42 43 45 42 37 36 37 32 22 19 22 26 27 29 29 30 31 31 32 31 30 31 33 33 35 38 41 45 49 51 53 54 57 60 62 64
44 44 44 44 44 43 43 43 43 43 43 44 44 44 45 44 44 44 44 44 44 44 44 45 45 45 45 46 46 46 46 46 46 46 47 48 49 50 49 50 50 49 47 46 46 44 43 40 37 35 36 38 38 33 29 29 28 24 22 24 26 30 33 34 34 34 34 35 35 34 34 35 36 37 40 43 47 50 53 55 56 59 62 64 65
40 40 40 40 40 40 40 40 39 39 40 40 40 41 41 40 40 40 40 40 41 42 42 42 42 42 43 43 43 44 44 44 45 46 47 48 49 49 50 50 50 49 47 45 45 43 39 34 30 29 31 33 33 27 21 21 24 24 24 26 29 33 39 40 39 38 38 38 38 37 35 36 38 41 43 46 49 53 56 57 58 60 63 65 66
37 37 37 38 38 38 39 39 39 39 39 39 39 40 40 39 39 40 40 40 40 41 41 40 40 41 41 41 41 41 41 42 43 43 45 48 49 49 50 50 50 49 47 45 44 42 37 32 28 28 31 32 30 24 17 14 17 20 23 27 31 36 41 41 39 39 40 40 39 39 38 38 42 45 47 48 51 54 58 60 60 60 61 64 66
37 37 37 37 37 38 39 39 39 39 39 39 40 40 41 41 41 41 41 41 42 42 42 42 42 42 42 42 42 41 41 42 43 43 44 47 49 50 51 51 50 50 47 46 46 44 39 33 30 30 33 34 32 27 21 18 22 28 33 38 39 39 41 41 37 37 41 42 41 43 44 45 47 48 48 49 52 55 59 61 60 59 60 63 67
38 38 38 38 38 39 40 40 40 41 41 41 41 42 42 43 43 43 44 44 44 45 45 45 45 45 45 45 44 43 43 44 45 45 44 45 48 50 51 51 51 51 48 46 47 46 43 38 33 31 33 35 34 32 31 37 45 48 47 47 47 43 42 41 38 38 42 44 43 45 48 51 51 49 48 49 52 55 59 61 59 59 61 63 67
40 40 40 41 41 41 42 42 43 43 43 43 43 44 44 44 44 45 46 46 47 47 48 49 49 49 48 48 47 46 46 46 48 48 45 44 47 50 50 50 51 51 50 49 48 47 46 43 36 32 33 37 38 39 46 56 61 56 50 49 48 42 39 40 41 42 45 45 44 45 49 52 52 49 48 49 51 55 60 60 59 59 62 64 66
44 43 43 44 44 45 45 45 46 45 45 45 45 46 46 46 47 48 48 48 48 49 50 51 51 51 51 50 49 49 48 49 50 49 45 44 47 49 49 49 50 51 52 53 51 48 47 45 41 38 39 43 44 48 56 62 58 49 43 43 43 41 40 43 46 46 48 49 47 46 49 52 51 49 48 49 51 56 60 61 59 60 62 64 67
48 47 47 47 48 48 48 49 48 48 48 47 47 48 48 49 49 50 50 50 50 51 52 52 53 53 52 52 51 51 50 51 52 51 48 48 49 49 49 49 49 50 52 53 51 46 45 47 47 46 47 49 49 49 52 54 48 40 37 40 42 44 46 48 48 48 50 51 49 47 49 51 49 49 50 51 52 56 61 61 60 62 63 65 68
51 51 51 51 51 51 51 52 51 51 50 49 50 50 50 50 51 51 52 52 52 53 54 54 54 54 54 54 54 53 52 53 53 54 53 52 51 51 49 48 49 50 52 54 50 45 46 49 51 51 51 51 50 48 48 49 46 41 40 41 41 43 47 50 50 50 49 47 45 45 46 47 47 50 53 54 54 57 61 62 62 63 64 66 68
54 55 54 54 54 54 55 54 54 54 53 53 53 53 53 53 54 54 54 55 55 55 55 55 56 56 55 56 56 56 55 55 55 55 55 54 53 53 51 51 50 49 52 54 52 47 48 52 53 53 52 50 47 45 45 47 49 47 44 43 44 47 51 52 51 48 44 41 43 44 44 44 48 53 56 57 56 58 61 63 64 65 66 67 69
57 57 57 57 57 57 57 57 57 57 56 56 56 57 57 57 57 58 58 58 57 57 58 57 58 57 58 58 59 59 59 58 57 56 55 55 54 53 53 53 52 51 53 54 51 48 50 53 54 54 53 51 49 44 42 46 50 48 45 48 51 54 57 58 52 45 42 42 44 43 44 46 51 56 58 58 57 58 62 64 65 66 67 68 70
59 60 60 59 59 59 59 59 59 59 60 60 60 60 61 61 61 61 61 61 61 61 60 60 60 60 60 61 61 62 62 62 61 59 57 56 55 54 54 53 53 54 55 52 48 46 48 51 53 54 54 55 54 49 46 48 48 46 48 54 56 57 61 63 55 46 47 50 47 44 45 47 51 56 60 59 58 60 64 66 67 67 68 69 71
61 62 61 61 61 61 61 62 62 63 63 63 64 64 65 65 65 65 65 65 65 64 64 64 64 63 64 64 64 64 65 65 64 63 61 59 58 56 55 55 54 55 55 52 47 44 44 47 52 56 58 60 58 55 52 52 52 52 54 57 60 59 57 57 57 55 55 55 48 43 44 47 50 56 62 61 60 63 66 67 68 69 69 70 71
64 64 63 64 64 64 64 65 66 66 67 67 68 68 69 69 69 69 68 68 68 68 68 68 67 68 68 68 68 68 68 67 67 65 64 64 62 59 57 55 53 54 56 53 46 43 43 48 53 58 61 63 62 61 58 55 57 61 58 56 60 60 55 61 70 64 51 46 45 44 45 49 53 59 63 61 60 63 66 68 69 70 70 71 71
67 67 67 67 67 67 68 69 69 70 71 71 71 72 72 72 72 72 72 72 71 71 71 71 71 71 72 72 71 72 71 71 70 68 67 66 64 60 57 55 53 54 54 51 45 42 45 50 54 58 59 60 62 64 60 53 55 61 58 54 56 55 56 70 82 69 48 44 48 49 50 53 57 61 63 61 61 64 67 69 70 70 70 71 71
70 70 70 71 71 71 72 72 73 73 74 74 75 75 75 75 75 75 75 75 75 76 75 75 75 75 74 74 74 74 73 73 71 70 69 68 66 61 57 54 53 53 51 47 43 42 44 47 52 55 53 49 52 58 57 50 50 56 58 56 52 50 55 66 74 68 58 52 51 51 54 58 60 62 63 62 62 65 68 69 69 69 70 70 71
72 73 74 74 74 75 75 75 75 76 76 77 77 77 78 78 78 78 78 78 79 79 79 79 79 78 77 76 75 73 73 73 71 69 68 66 65 62 56 52 51 51 49 44 41 39 40 42 45 47 45 42 43 46 45 42 45 52 55 53 50 53 58 62 65 65 63 60 60 61 63 62 62 62 62 61 63 65 67 68 69 69 70 71 71
75 75 76 77 77 77 77 77 77 78 78 78 79 79 80 80 81 80 81 81 81 81 81 80 80 79 77 74 72 71 72 73 72 70 66 62 62 61 55 51 50 49 45 40 35 34 35 35 34 37 40 40 36 34 32 34 43 50 53 52 51 54 57 59 61 63 62 61 63 66 65 62 63 63 62 62 65 65 66 68 68 69 70 71 71
77 78 78 79 79 79 79 78 78 79 79 79 80 81 81 82 82 82 82 81 80 80 79 79 79 77 74 71 69 69 72 74 75 72 66 60 60 59 53 50 52 51 45 38 30 25 25 24 20 22 29 30 26 23 24 31 41 47 49 51 53 52 53 56 59 62 62 61 61 62 61 62 64 63 62 64 65 65 66 68 68 69 70 71 72
80 80 81 81 81 80 80 79 79 80 80 80 81 81 81 81 80 80 79 77 76 76 76 76 76 74 70 67 65 66 68 71 73 73 67 61 59 57 51 49 53 52 48 42 32 21 19 19 13 13 18 22 22 20 21 27 35 41 45 51 55 56 56 58 61 63 64 64 63 63 63 64 64 63 64 65 65 65 67 68 69 70 72 72 73
82 82 82 82 82 82 82 82 82 82 81 81 81 79 78 77 75 74 73 72 71 71 73 74 73 70 66 64 64 63 62 62 64 67 67 62 58 55 51 51 53 51 48 45 37 27 23 20 9 11 15 20 23 29 31 31 35 42 47 53 58 58 58 61 63 64 64 64 65 65 64 64 64 64 64 65 65 66 68 69 70 72 73 73 74
83 83 83 84 85 85 85 84 83 82 80 78 76 74 73 72 71 70 69 67 66 68 69 69 68 66 64 64 65 65 63 60 58 59 61 62 59 54 50 52 54 50 47 47 42 33 27 21 12 10 18 25 28 34 43 45 44 45 50 55 59 60 61 63 65 65 65 64 64 64 64 63 64 64 64 65 66 67 69 71 73 74 74 75 76
84 85 85 86 86 86 85 84 82 79 77 75 74 73 72 72 71 71 71 71 71 73 73 72 70 68 67 68 69 69 68 65 60 57 55 57 58 55 51 52 56 53 49 49 48 39 29 24 24 32 43 48 48 50 57 59 54 53 57 61 63 63 64 64 64 64 64 63 63 63 63 63 64 64 65 66 68 70 71 73 75 75 76 78 79
87 87 87 87 86 85 84 82 81 79 79 79 78 78 77 78 78 78 78 78 78 78 77 75 74 72 71 72 72 71 70 68 65 61 56 53 55 56 52 52 56 57 52 50 51 46 37 32 35 43 53 58 57 57 60 60 58 59 63 66 66 66 65 64 64 64 64 63 63 63 63 63 64 66 67 69 71 73 74 76 77 79 80 81 81
88 87 86 84 83 82 81 80 80 80 82 82 83 84 84 85 85 85 84 82 81 79 77 75 75 76 76 76 76 72 69 68 67 65 60 54 52 56 55 53 56 59 55 52 54 53 47 43 42 45 52 60 63 62 62 63 64 65 67 67 67 66 66 66 65 64 64 64 64 64 64 65 67 69 71 73 74 75 76 78 81 83 83 83 83
83 82 82 82 82 82 81 81 82 83 83 84 85 86 87 87 87 87 86 84 83 82 80 79 79 80 80 79 76 72 69 68 67 65 62 57 52 54 57 56 56 58 58 57 58 59 57 55 52 50 51 56 60 63 65 67 68 68 68 67 64 63 64 64 64 64 64 65 66 67 68 70 73 74 75 76 77 78 80 82 84 85 85 85 85
78 80 80 81 81 82 82 83 84 86 86 86 87 87 88 88 88 87 86 86 85 85 84 83 82 82 80 78 75 72 70 69 68 67 64 60 55 53 56 58 57 58 60 61 63 65 65 65 64 61 57 57 58 59 61 63 66 67 68 68 66 64 64 64 64 65 66 67 69 71 73 76 77 79 80 80 81 83 84 85 86 86 87 87 88
80 81 80 80 81 82 84 85 87 88 88 88 88 88 88 88 87 87 87 86 86 86 85 84 82 81 80 78 76 74 72 70 69 68 66 62 58 55 55 57 58 59 61 63 66 69 71 72 73 71 68 66 65 63 62 63 66 67 68 69 69 69 69 69 70 71 72 73 75 77 79 81 82 83 85 86 86 87 87 87 88 88 88 89 89
81 81 81 82 83 84 86 87 88 89 89 88 88 88 88 88 88 88 88 89 88 88 87 85 83 83 82 80 77 75 72 70 68 67 66 64 60 57 57 58 59 60 61 63 65 69 73 76 78 78 76 76 76 75 72 70 70 70 71 73 74 75 76 77 77 77 78 79 80 82 84 85 87 88 89 90 90 89 89 89 89 89 89 89 89
81 82 82 83 84 85 87 88 88 89 89 90 90 91 90 90 90 90 90 91 90 89 88 87 85 84 83 80 77 75 72 69 66 66 65 65 62 59 58 59 60 61 62 63 65 66 69 73 77 79 80 81 83 83 82 79 76 74 74 75 77 79 81 82 83 83 84 85 86 88 89 90 91 91 91 91 91 90 89 89 89 89 89 89 87
Wind_Direction
219 222 225 230 233 236 239 241 244 247 250 254 257 259 262 265 267 269 271 273 277 280 282 285 289 291 294 297 300 302 304 307 308 308 310 312 314 314 315 317 319 319 320 321 323 326 328 330 331 332 333 333 334 335 337 338 339 340 341 342 343 344 345 345 342 337 330 324 323 325 325 326 330 334 340 348 356 1 4 6 6 6 4 1 1
217 220 224 229 233 236 239 241 244 246 250 254 257 259 262 265 266 267 269 271 274 276 280 284 286 289 291 294 297 299 301 303 304 304 306 308 310 311 312 314 316 316 317 318 320 322 324 325 327 328 329 330 330 331 333 335 336 336 337 339 340 341 342 343 341 337 332 324 318 318 320 321 324 327 332 341 351 356 359 1 3 3 2 359 359
218 219 223 227 230 234 237 240 243 246 250 253 256 258 261 263 265 267 269 272 274 277 279 282 284 286 288 291 294 296 298 300 301 301 303 305 307 308 309 310 312 313 314 315 316 319 321 322 323 324 325 326 327 328 329 331 333 333 334 335 337 338 338 340 340 337 331 325 318 315 316 319 321 322 326 335 345 351 354 357 360 1 359 358 357
224 225 227 229 232 235 238 240 243 245 248 251 254 256 258 260 262 265 268 271 274 277 279 280 282 284 287 289 292 294 296 298 298 298 300 302 304 305 306 307 309 310 311 312 314 316 317 319 320 321 322 322 323 325 326 328 330 330 331 332 333 335 336 337 338 336 330 325 320 316 315 318 320 320 321 329 340 346 350 353 356 358 357 356 355
230 231 233 233 235 237 239 241 243 245 248 251 253 254 255 257 259 263 267 270 273 275 278 280 282 284 285 287 289 291 294 295 295 296 298 300 302 302 303 304 306 307 309 310 312 313 314 316 317 318 319 320 321 322 323 325 327 327 328 329 330 331 333 334 335 334 330 324 321 318 316 316 318 318 317 323 334 341 346 349 352 355 355 354 353
233 234 235 237 239 239 241 242 244 245 248 250 252 253 255 257 259 262 266 268 271 273 276 278 280 282 283 285 287 289 291 292 292 294 296 298 300 301 301 303 304 306 307 309 310 311 312 313 315 316 316 317 318 319 321 322 324 325 325 326 327 328 329 331 332 332 329 323 318 317 316 315 316 316 315 318 328 337 342 345 348 351 353 352 350
236 237 238 240 242 242 243 243 244 245 246 247 249 251 253 256 259 261 263 266 268 271 274 276 278 280 282 284 285 287 288 289 290 291 294 296 298 299 300 301 303 305 306 307 308 309 310 311 312 313 314 315 316 317 318 319 321 322 322 323 324 325 326 328 329 329 327 322 317 314 313 313 314 316 314 314 323 333 339 342 344 346 349 350 348
236 237 238 241 243 244 244 245 246 246 247 248 248 250 252 255 257 260 262 265 267 270 272 275 277 279 281 282 283 284 285 287 288 291 293 294 296 297 299 300 302 303 304 305 306 307 307 308 310 311 312 312 313 314 315 317 318 319 320 321 322 323 324 325 326 326 325 321 316 311 310 310 313 315 312 308 317 329 335 337 340 343 345 347 346
236 238 239 241 244 246 246 247 248 249 251 251 252 253 254 256 258 260 262 264 267 270 272 274 276 278 280 281 282 283 285 286 288 291 292 293 295 296 298 299 300 301 302 303 303 304 305 306 307 308 309 310 311 312 313 314 315 316 317 318 319 320 321 322 323 323 322 320 315 309 307 308 311 314 309 302 310 323 331 333 337 339 342 345 344
237 239 241 243 246 248 248 249 251 253 254 255 255 256 257 258 260 262 264 266 268 271 273 274 276 278 280 281 282 283 285 287 288 290 291 293 294 295 296 297 298 299 300 300 301 302 303 304 305 306 307 308 309 310 311 311 312 314 315 316 317 318 319 319 319 320 319 317 313 308 305 307 311 312 306 298 304 318 326 331 334 337 339 342 343
240 242 243 245 247 249 249 250 252 254 255 256 257 258 260 261 263 265 267 269 271 273 274 276 277 279 280 281 282 284 285 287 288 289 290 292 293 293 295 296 296 297 298 298 299 300 301 302 303 304 305 306 307 308 308 308 310 311 313 314 314 316 317 317 316 316 316 314 310 305 303 306 310 312 306 298 302 313 322 328 333 336 336 338 342
241 243 245 247 248 249 250 251 252 253 254 256 257 259 260 262 264 266 269 270 272 274 275 277 279 280 281 282 283 283 285 286 287 287 288 289 291 292 293 294 295 295 296 297 298 298 299 300 301 302 303 304 305 305 306 306 308 309 310 311 313 314 315 314 313 313 312 311 307 303 302 306 311 312 307 301 303 311 318 326 331 333 334 336 340
242 243 244 246 247 248 250 251 252 253 254 255 257 259 261 263 265 268 269 271 273 274 276 278 279 279 280 281 281 282 283 284 285 285 287 288 289 290 292 293 293 294 294 295 296 297 298 299 300 301 301 302 303 303 302 304 306 308 309 310 311 312 312 310 309 309 308 307 304 300 302 306 310 310 307 304 307 312 317 323 328 331 332 334 337
244 245 245 246 247 248 249 250 252 254 256 258 260 262 263 265 266 268 269 271 272 274 275 276 276 277 278 278 280 281 281 282 284 285 286 287 287 289 290 291 292 293 293 294 295 296 297 298 298 299 299 300 300 299 300 303 305 307 308 308 309 309 309 307 305 304 304 303 299 298 301 305 307 309 308 309 311 314 318 322 325 328 330 331 334
245 246 246 247 248 249 250 251 253 256 258 260 261 262 263 264 265 266 268 269 270 271 272 272 273 275 276 278 279 280 281 283 284 285 285 286 287 288 289 289 291 291 292 293 294 294 295 295 296 297 297 298 297 297 300 302 304 306 307 306 307 307 306 304 302 301 300 299 296 297 301 304 306 309 311 313 315 318 321 323 323 325 327 329 331
246 247 248 248 249 250 252 254 256 257 259 260 261 262 263 264 266 267 268 269 269 270 271 272 274 276 277 278 279 280 282 283 284 285 285 286 286 287 288 288 289 289 290 291 291 292 293 294 294 295 296 296 296 298 301 302 304 306 305 304 305 306 304 302 300 299 297 295 294 297 301 303 307 311 313 315 318 321 323 323 323 323 324 326 329
247 248 249 251 252 253 255 256 258 259 260 261 262 263 264 265 267 268 269 270 271 272 274 275 277 278 279 279 280 281 282 283 284 285 285 285 286 286 287 287 287 288 289 290 291 292 293 294 295 296 296 296 297 300 302 303 305 306 303 302 304 303 302 302 300 297 294 293 294 298 301 303 307 311 313 315 319 323 324 324 325 325 324 326 327
249 250 251 252 254 255 256 257 258 259 261 261 262 264 265 267 268 269 270 272 273 275 276 277 278 279 279 280 281 282 283 283 284 285 285 286 286 286 286 287 288 289 290 291 293 294 295 297 297 297 297 298 301 303 303 304 308 307 301 300 300 300 303 305 302 295 291 293 295 297 299 302 305 309 313 316 320 323 324 324 327 328 327 327 327
252 253 254 254 255 256 257 259 260 261 262 263 264 266 267 268 269 270 271 272 274 275 276 277 278 279 280 280 281 282 283 283 284 285 286 287 287 288 288 289 290 291 291 293 294 296 297 299 299 300 300 300 302 302 303 306 311 308 298 296 296 300 307 308 303 297 292 291 292 291 294 299 304 308 312 316 320 323 323 324 327 328 328 328 328
253 254 255 256 257 258 259 260 261 262 264 265 266 267 267 268 269 270 271 273 274 275 276 277 278 279 280 281 282 283 284 285 286 287 288 289 289 289 291 291 291 291 292 294 296 298 299 300 300 301 301 299 300 302 302 307 311 307 294 292 295 301 308 308 303 298 290 285 285 287 292 298 303 307 311 315 320 322 322 324 327 328 328 329 330
252 254 255 257 258 259 260 261 262 263 265 266 267 268 268 269 270 271 272 273 274 275 276 277 277 279 280 283 284 286 287 287 287 287 287 287 288 288 289 290 290 291 293 295 297 298 299 300 301 301 298 295 297 299 300 303 306 300 289 289 294 300 306 309 305 295 284 282 287 293 296 299 304 308 311 316 320 321 321 324 327 327 327 329 331
251 253 254 255 256 257 258 259 261 262 264 265 267 268 269 270 271 272 273 274 275 276 276 277 278 279 281 283 284 285 285 285 286 286 285 286 287 288 290 291 291 293 295 297 297 297 297 298 298 295 291 289 292 295 296 299 300 293 283 282 287 296 303 308 306 295 285 286 292 295 297 300 305 308 312 316 320 321 321 323 326 326 326 328 330
249 250 252 252 254 254 255 256 258 260 262 263 265 267 268 269 271 272 273 274 275 275 276 278 279 280 281 282 283 284 284 285 286 287 287 288 289 291 293 293 294 295 296 296 295 294 295 294 290 285 281 279 282 288 294 295 293 288 281 279 287 297 303 308 309 301 291 289 292 294 297 301 305 308 312 317 320 320 320 322 324 325 325 327 328
250 252 254 255 257 258 258 258 259 260 261 263 265 267 268 269 270 270 271 273 274 275 277 278 280 282 283 284 285 286 288 289 289 290 291 292 293 294 295 295 296 296 297 296 293 291 291 288 280 277 274 271 273 280 285 290 294 296 295 294 298 303 304 308 311 305 295 291 290 292 296 301 304 307 312 317 319 319 319 321 323 324 324 324 325
255 256 258 260 262 264 265 266 267 267 268 269 270 271 272 274 274 275 276 276 277 279 280 282 283 284 284 285 286 287 289 290 290 291 292 294 295 296 296 297 297 298 298 297 293 289 287 281 274 270 270 270 273 274 272 275 287 298 302 300 300 300 299 302 308 307 298 292 289 289 293 297 301 305 310 315 318 317 317 319 321 322 322 322 322
258 259 260 262 263 264 266 268 270 271 272 274 275 276 276 277 278 279 280 281 282 283 284 285 285 285 285 286 287 288 289 289 290 290 291 294 296 297 297 298 298 299 298 296 291 286 283 278 270 262 265 271 272 271 275 281 287 293 297 296 296 297 293 293 300 306 301 295 291 288 289 293 297 302 307 312 314 314 314 316 318 318 319 320 320
257 259 260 261 261 262 263 265 266 268 269 271 272 274 275 276 277 278 279 280 282 283 283 284 284 285 286 287 288 289 289 289 289 289 291 292 294 296 297 298 299 299 298 296 291 284 279 277 269 260 263 269 269 271 281 286 290 294 296 293 292 292 288 287 295 302 300 296 293 290 288 289 294 300 306 309 311 311 312 313 314 316 317 318 318
257 258 259 260 260 261 262 262 264 264 266 267 268 270 272 273 274 275 276 278 279 279 280 282 283 284 286 287 288 289 289 289 289 290 290 291 292 293 295 297 297 296 296 294 289 283 278 277 274 270 270 272 274 279 285 288 292 296 296 290 287 286 284 287 293 296 294 292 292 291 288 287 290 298 304 306 308 309 310 310 311 313 315 316 316
257 260 261 261 261 262 262 263 263 264 265 266 267 268 270 271 273 274 276 277 278 279 280 281 283 284 286 287 288 290 290 291 291 292 292 291 291 292 294 295 294 294 294 291 285 279 275 277 280 282 280 279 282 286 288 289 293 294 292 289 287 286 286 289 292 291 288 288 290 289 286 286 289 295 301 304 307 308 307 307 309 311 313 314 315
259 261 262 262 262 263 263 264 265 265 266 267 269 270 271 272 274 275 276 277 278 279 280 281 282 284 285 286 288 290 291 291 292 293 293 292 292 292 293 293 292 292 292 290 284 276 273 276 282 286 283 282 286 290 290 290 294 295 295 294 291 290 292 293 292 287 283 287 291 287 284 287 289 292 297 302 304 305 305 305 307 310 312 313 314
261 262 263 263 263 264 264 265 266 267 268 269 270 271 272 273 274 275 276 277 277 278 279 280 281 282 283 285 287 289 290 291 292 293 293 293 292 293 293 293 292 289 288 287 284 279 277 279 283 285 282 280 283 287 288 289 291 294 297 297 295 296 296 294 289 282 281 294 302 293 286 289 290 289 293 297 299 302 304 304 306 309 311 312 313
262 263 264 264 265 266 266 267 268 269 269 270 271 272 273 274 274 275 276 277 278 279 279 280 281 282 283 284 285 287 289 291 292 293 293 293 292 292 293 292 291 288 286 283 282 281 282 281 283 284 282 279 280 281 284 287 287 288 294 295 294 295 296 293 288 278 278 296 307 298 290 291 288 287 291 294 296 301 305 304 306 309 310 311 312
263 264 265 266 267 268 268 269 269 270 270 271 272 273 274 275 276 277 278 279 280 280 281 281 282 282 282 283 284 286 288 290 291 292 293 293 293 293 292 291 291 289 286 282 279 281 283 283 283 283 281 280 279 280 284 285 281 280 285 286 287 291 294 293 292 286 284 292 300 297 291 288 284 285 290 292 294 300 303 304 306 309 309 309 310
263 264 265 267 268 268 269 269 270 271 271 272 273 274 275 276 277 278 279 280 282 282 283 283 283 283 283 284 284 286 287 288 289 290 291 292 292 292 291 291 290 289 286 283 281 283 285 285 284 283 283 282 279 279 283 283 276 274 279 280 282 287 287 284 288 295 296 294 292 288 285 281 279 283 289 292 295 298 301 303 306 308 307 307 309
263 264 265 266 268 268 269 270 270 271 272 273 273 274 275 276 278 279 280 282 283 283 284 284 285 285 285 285 286 287 287 287 288 288 288 289 290 290 289 288 288 286 284 283 284 286 286 286 284 283 284 284 280 280 283 279 270 269 273 276 278 281 280 282 289 295 296 289 281 276 276 276 278 283 288 293 296 297 298 301 305 305 305 306 307
264 265 266 267 268 269 269 270 271 272 272 273 274 275 276 277 278 280 281 282 283 283 284 285 285 286 286 287 287 287 287 287 287 287 286 286 286 286 286 286 284 282 281 281 283 285 284 282 278 277 279 281 280 281 282 276 266 264 269 275 276 272 272 280 285 284 279 273 270 269 271 275 279 283 289 294 296 294 295 300 303 303 303 304 305
265 266 267 267 268 269 270 270 271 272 273 274 275 276 277 278 279 280 281 282 283 284 285 285 286 287 287 288 288 288 287 286 285 285 284 284 283 283 283 282 280 279 278 279 282 285 283 279 274 272 275 280 281 280 278 271 260 256 262 271 269 254 250 263 270 270 268 267 264 266 273 276 278 284 289 292 292 291 293 298 301 301 301 302 302
265 266 267 267 268 269 270 271 272 273 274 275 275 276 277 278 279 280 281 282 283 284 285 286 287 288 289 289 289 289 288 287 286 284 283 281 280 280 280 279 277 275 274 277 282 286 286 283 279 278 282 286 283 276 270 262 253 250 255 261 255 242 243 254 261 264 266 263 260 266 273 275 277 282 286 287 287 289 293 297 299 299 300 300 300
265 266 267 268 269 270 271 272 273 274 275 276 277 278 278 279 280 281 281 282 283 284 285 287 288 288 289 289 289 289 288 287 286 285 282 280 278 277 277 276 273 270 269 272 279 284 284 283 286 291 291 285 274 263 254 246 243 246 252 253 245 240 247 255 259 261 263 261 260 264 268 270 274 279 281 283 285 288 292 296 297 298 298 298 298
265 267 268 269 270 271 272 273 274 276 277 278 278 279 279 280 281 281 281 282 283 284 285 286 286 287 287 287 288 289 289 287 285 283 282 280 276 275 275 273 269 267 266 265 267 278 284 284 292 296 283 265 250 245 244 239 240 244 248 247 244 245 251 255 256 258 260 259 260 262 265 269 273 276 278 281 284 288 291 294 295 295 295 296 297
266 267 268 270 271 272 273 274 275 276 277 277 278 279 280 281 281 281 282 283 284 284 284 284 284 285 286 287 289 291 292 290 286 282 280 279 275 271 269 266 263 264 264 260 256 262 271 272 286 301 277 255 252 262 260 248 246 248 247 244 244 248 252 254 255 256 257 258 259 261 264 268 272 275 278 282 285 288 290 291 291 292 293 295 297
267 268 269 270 271 272 273 274 275 276 276 276 277 279 279 280 281 281 282 284 284 284 284 284 284 285 285 286 289 291 293 295 292 285 278 276 274 269 264 261 260 258 256 252 251 249 244 241 264 322 300 275 271 276 274 263 254 252 249 246 245 248 252 254 256 257 258 259 260 261 264 269 272 276 280 284 286 287 288 288 289 291 292 294 296
267 268 269 270 271 272 274 275 275 275 274 274 275 276 278 279 280 282 283 284 285 286 287 288 286 285 285 286 290 291 292 295 298 292 281 274 270 266 261 259 259 255 248 243 243 239 228 213 197 209 222 215 214 232 245 250 251 252 251 248 248 251 256 257 257 257 257 259 260 262 266 270 274 277 280 283 284 285 285 287 289 290 292 294 295
267 268 269 270 271 273 273 273 273 272 272 272 273 275 277 278 280 282 283 284 285 287 289 288 286 285 286 289 292 293 291 291 296 297 289 276 267 262 259 257 257 255 248 241 236 230 219 206 194 193 197 196 196 205 218 226 235 245 250 251 253 256 259 259 257 256 257 258 261 264 268 271 274 277 279 280 281 283 285 287 289 290 292 293 294
266 267 268 270 271 271 271 270 270 270 270 271 273 275 276 278 279 281 283 284 286 287 287 287 285 285 287 290 294 295 293 290 291 295 294 283 268 259 255 254 254 254 251 242 232 224 217 212 206 200 201 203 204 207 213 221 233 244 250 252 255 257 257 256 256 256 257 259 263 266 270 272 274 276 277 278 280 283 285 286 288 289 291 292 293
265 266 267 268 268 268 268 269 270 270 271 273 274 276 277 278 280 281 283 285 286 286 287 287 285 285 287 291 295 295 294 292 291 292 294 290 275 260 253 251 251 252 249 240 231 227 224 222 218 215 213 215 217 221 227 237 245 249 251 253 255 255 254 254 255 257 259 262 266 268 269 271 272 274 276 278 280 282 284 285 286 287 289 290 291
262 263 263 264 265 266 268 269 271 272 273 275 276 278 279 280 281 283 284 285 286 286 287 287 286 286 288 291 295 295 294 293 292 291 291 291 282 267 255 250 249 249 247 239 233 231 231 231 231 230 228 229 232 236 241 247 250 251 251 252 253 253 253 255 257 259 261 263 265 266 266 268 270 273 275 277 278 280 281 283 284 286 288 289 291
260 260 261 262 265 267 269 271 272 273 274 276 278 279 280 282 283 284 285 286 286 287 288 288 288 289 290 292 295 297 296 294 294 292 290 290 286 275 261 252 248 248 246 241 236 234 234 236 237 237 236 237 241 244 246 248 250 250 251 252 252 252 254 255 257 258 260 261 261 263 264 266 269 272 273 275 277 279 280 282 284 286 288 290 291
260 261 262 264 266 269 270 272 274 275 276 277 279 280 281 282 283 284 285 286 287 287 288 288 289 290 292 294 296 297 296 295 295 293 291 289 287 281 270 259 252 249 247 244 240 238 237 238 240 240 238 239 243 247 248 249 250 251 252 254 254 255 256 256 257 257 258 259 260 262 264 266 268 271 273 275 277 279 281 283 285 287 288 290 291
262 263 265 267 269 270 272 273 274 275 277 278 279 280 281 282 283 284 285 286 286 287 288 288 289 290 292 294 295 296 296 295 294 293 291 289 286 282 276 268 259 253 251 249 246 243 241 242 243 243 242 241 244 248 250 252 252 253 253 253 254 255 256 256 257 258 259 260 261 263 265 267 269 271 273 276 278 280 282 284 285 287 288 290 291
264 265 267 268 269 271 272 273 274 275 276 278 279 281 282 282 283 284 284 285 286 286 287 288 289 290 292 293 294 295 295 295 294 293 291 289 286 282 278 274 267 260 256 254 252 250 248 248 248 249 248 248 250 253 256 257 259 258 257 256 256 256 257 257 258 259 260 261 263 265 266 268 270 272 274 276 278 280 282 283 285 286 288 289 291
Height
10972 10975 10977 10979 10980 10982 10984 10985 10986 10987 10987 10988 10989 10990 10990 10991 10991 10992 10992 10992 10992 10992 10992 10992 10992 10991 10991 10991 10991 10990 10990 10989 10989 10988 10988 10987 10986 10984 10982 10981 10980 10979 10977 10976 10975 10973 10972 10970 10969 10967 10965 10963 10961 10959 10957 10955 10953 10952 10950 10948 10946 10944 10942 10939 10937 10934 10932 10930 10928 10926 10924 10922 10921 10920 10919 10917 10915 10912 10910 10907 10904 10901 10898 10895 10892
10970 10972 10974 10976 10978 10979 10981 10982 10983 10984 10985 10986 10986 10987 10988 10988 10989 10989 10989 10989 10990 10990 10990 10990 10989 10989 10989 10988 10988 10988 10987 10987 10986 10985 10985 10985 10984 10982 10980 10979 10978 10977 10975 10974 10972 10971 10970 10968 10966 10964 10962 10960 10959 10957 10955 10953 10951 10949 10947 10945 10943 10942 10940 10937 10935 10932 10929 10928 10926 10924 10922 10920 10919 10918 10917 10916 10913 10911 10908 10906 10902 10899 10896 10892 10889
10967 10969 10971 10973 10974 10976 10977 10978 10980 10981 10982 10983 10984 10985 10985 10986 10985 10985 10985 10986 10986 10987 10987 10987 10987 10986 10986 10986 10986 10985 10984 10984 10983 10982 10982 10982 10981 10980 10978 10976 10975 10974 10973 10971 10969 10968 10967 10966 10964 10962 10960 10958 10956 10954 10952 10951 10949 10946 10944 10942 10941 10939 10937 10935 10932 10929 10927 10924 10923 10921 10919 10917 10916 10915 10915 10913 10911 10908 10906 10903 10900 10896 10892 10889 10885
10965 10967 10968 10970 10972 10973 10974 10975 10976 10978 10979 10980 10981 10982 10982 10982 10982 10982 10982 10983 10983 10984 10984 10984 10984 10984 10983 10983 10983 10982 10982 10981 10980 10979 10979 10978 10978 10977 10976 10974 10972 10971 10970 10968 10966 10965 10964 10963 10961 10959 10957 10955 10953 10951 10949 10948 10946 10944 10941 10939 10938 10936 10934 10932 10929 10927 10924 10921 10919 10917 10916 10914 10913 10912 10911 10910 10908 10905 10902 10899 10896 10893 10889 10885 10881
10963 10964 10966 10967 10968 10969 10970 10971 10973 10974 10976 10977 10978 10979 10979 10979 10979 10979 10980 10980 10980 10980 10980 10980 10981 10980 10980 10980 10980 10979 10979 10977 10977 10976 10976 10975 10974 10973 10973 10971 10969 10967 10966 10965 10963 10961 10960 10959 10958 10956 10954 10952 10950 10948 10947 10945 10943 10941 10938 10936 10935 10933 10931 10929 10927 10924 10922 10919 10916 10914 10912 10911 10909 10908 10907 10906 10904 10901 10898 10895 10892 10889 10885 10881 10877
10960 10961 10963 10964 10965 10966 10967 10968 10969 10971 10973 10974 10974 10975 10975 10975 10975 10976 10976 10976 10976 10976 10977 10977 10977 10977 10977 10977 10976 10976 10975 10974 10973 10973 10972 10972 10970 10969 10969 10968 10966 10964 10963 10962 10960 10958 10957 10955 10954 10953 10951 10949 10947 10945 10943 10941 10940 10938 10935 10933 10931 10930 10927 10925 10924 10921 10919 10916 10913 10911 10908 10907 10905 10903 10902 10902 10900 10897 10895 10891 10888 10885 10882 10878 10875
10957 10958 10960 10961 10961 10962 10963 10965 10967 10968 10969 10970 10970 10970 10971 10971 10972 10972 10973 10973 10973 10973 10974 10974 10974 10973 10973 10973 10973 10973 10972 10970 10970 10969 10969 10968 10967 10965 10964 10963 10963 10961 10960 10958 10957 10955 10953 10952 10950 10949 10947 10945 10943 10941 10940 10938 10936 10934 10932 10929 10928 10926 10924 10922 10920 10918 10916 10913 10911 10908 10905 10904 10902 10900 10898 10898 10896 10894 10891 10889 10886 10882 10879 10877 10874
10953 10954 10957 10958 10958 10959 10961 10963 10964 10965 10966 10966 10966 10966 10967 10968 10968 10968 10969 10969 10969 10970 10970 10970 10970 10970 10970 10970 10969 10969 10968 10967 10966 10966 10966 10965 10964 10962 10960 10959 10959 10958 10956 10955 10953 10951 10949 10947 10946 10944 10943 10941 10938 10937 10935 10934 10932 10930 10928 10926 10924 10922 10920 10918 10916 10914 10912 10910 10907 10905 10903 10901 10899 10897 10896 10895 10893 10891 10888 10886 10884 10881 10877 10874 10871
10949 10951 10953 10954 10954 10955 10958 10960 10961 10962 10962 10962 10962 10963 10964 10964 10964 10965 10965 10966 10966 10966 10966 10966 10966 10966 10966 10966 10966 10965 10964 10964 10963 10962 10962 10961 10960 10959 10957 10955 10954 10953 10952 10950 10949 10946 10944 10942 10941 10940 10938 10936 10933 10932 10930 10929 10927 10925 10923 10921 10920 10917 10915 10913 10911 10910 10908 10906 10904 10902 10900 10898 10896 10895 10893 10892 10890 10888 10886 10883 10881 10879 10876 10873 10868
10945 10946 10948 10949 10950 10952 10954 10956 10957 10957 10957 10957 10958 10959 10960 10960 10961 10961 10961 10962 10962 10963 10962 10962 10962 10963 10963 10962 10962 10961 10961 10960 10959 10958 10958 10957 10956 10955 10954 10952 10950 10948 10947 10945 10944 10942 10940 10938 10936 10934 10932 10930 10928 10926 10924 10923 10921 10920 10918 10916 10915 10913 10911 10908 10906 10904 10903 10901 10899 10898 10896 10895 10894 10892 10890 10889 10887 10885 10883 10880 10878 10875 10873 10871 10867
10941 10942 10944 10945 10946 10948 10950 10951 10952 10952 10952 10953 10954 10955 10955 10956 10957 10957 10958 10958 10959 10959 10959 10959 10959 10959 10959 10958 10958 10957 10957 10956 10956 10955 10954 10953 10952 10950 10949 10948 10946 10943 10941 10940 10938 10937 10935 10933 10931 10929 10926 10925 10923 10921 10919 10917 10915 10914 10913 10911 10909 10908 10906 10903 10901 10899 10898 10896 10894 10893 10892 10891 10890 10888 10887 10886 10884 10882 10880 10877 10874 10872 10869 10866 10864
10936 10938 10940 10941 10942 10943 10945 10946 10946 10947 10947 10948 10949 10950 10951 10951 10952 10953 10954 10954 10955 10955 10955 10955 10955 10955 10955 10954 10954 10953 10953 10952 10951 10950 10949 10948 10947 10946 10944 10942 10940 10938 10936 10934 10932 10931 10930 10928 10926 10924 10921 10918 10917 10915 10912 10911 10910 10909 10907 10905 10903 10902 10900 10898 10895 10894 10892 10891 10889 10888 10887 10886 10885 10884 10882 10881 10880 10878 10876 10873 10870 10868 10865 10862 10858
10932 10934 10935 10936 10937 10939 10941 10941 10941 10942 10943 10944 10945 10946 10947 10947 10948 10949 10950 10950 10950 10950 10951 10951 10951 10951 10950 10950 10949 10949 10948 10947 10946 10945 10945 10944 10943 10941 10939 10936 10934 10932 10930 10929 10927 10925 10923 10922 10921 10919 10916 10913 10911 10908 10906 10905 10904 10903 10900 10899 10897 10895 10894 10892 10890 10888 10887 10885 10884 10882 10882 10881 10880 10879 10878 10877 10876 10874 10871 10869 10866 10863 10860 10857 10854
10927 10929 10930 10932 10933 10935 10936 10936 10936 10938 10939 10941 10942 10942 10943 10943 10944 10945 10945 10946 10946 10946 10946 10946 10946 10946 10945 10944 10944 10943 10942 10941 10940 10940 10939 10938 10937 10936 10934 10931 10928 10925 10924 10923 10922 10919 10917 10915 10914 10912 10909 10907 10904 10901 10900 10900 10899 10897 10894 10892 10891 10889 10887 10886 10884 10882 10881 10880 10879 10878 10877 10877 10875 10874 10873 10872 10871 10870 10867 10864 10861 10858 10855 10851 10848
10922 10923 10925 10926 10928 10930 10930 10931 10933 10934 10935 10937 10937 10938 10938 10938 10939 10940 10941 10941 10941 10940 10940 10940 10940 10940 10940 10939 10938 10937 10936 10935 10934 10933 10933 10932 10931 10930 10929 10927 10924 10920 10917 10916 10915 10913 10911 10909 10907 10905 10903 10900 10896 10894 10895 10895 10893 10892 10889 10885 10884 10883 10881 10880 10878 10877 10876 10875 10874 10874 10873 10872 10871 10870 10868 10867 10866 10864 10862 10859 10856 10852 10849 10846 10843
10917 10918 10919 10921 10923 10924 10925 10927 10929 10930 10931 10931 10932 10932 10932 10933 10934 10935 10935 10935 10934 10934 10934 10934 10934 10935 10934 10934 10933 10931 10930 10930 10928 10926 10925 10924 10924 10923 10922 10921 10919 10915 10911 10909 10908 10906 10904 10902 10900 10898 10896 10893 10889 10888 10889 10889 10888 10887 10884 10879 10877 10877 10875 10874 10873 10872 10871 10870 10870 10870 10869 10868 10866 10865 10863 10861 10860 10858 10857 10854 10851 10848 10845 10841 10838
10911 10912 10914 10916 10918 10920 10921 10923 10924 10925 10925 10925 10925 10925 10927 10928 10928 10929 10929 10928 10928 10928 10928 10928 10929 10928 10928 10927 10927 10925 10925 10923 10921 10918 10917 10916 10916 10915 10914 10913 10912 10909 10905 10902 10901 10899 10897 10895 10893 10891 10889 10886 10884 10882 10882 10882 10882 10881 10878 10874 10873 10871 10869 10868 10868 10868 10867 10866 10865 10865 10865 10863 10861 10859 10857 10855 10853 10852 10850 10849 10846 10843 10840 10837 10833
10906 10908 10910 10912 10914 10915 10916 10917 10918 10919 10919 10919 10919 10920 10922 10922 10923 10923 10923 10923 10922 10922 10922 10922 10921 10921 10920 10920 10919 10918 10917 10916 10914 10911 10909 10907 10907 10906 10906 10905 10905 10902 10899 10897 10895 10893 10892 10889 10887 10885 10882 10880 10880 10878 10875 10875 10877 10876 10873 10870 10869 10867 10865 10864 10863 10863 10862 10862 10861 10860 10859 10858 10855 10853 10851 10849 10847 10846 10844 10842 10840 10837 10834 10831 10827
10901 10902 10904 10906 10908 10909 10910 10911 10911 10912 10912 10912 10913 10915 10916 10916 10916 10916 10916 10916 10916 10916 10916 10914 10913 10913 10912 10912 10912 10911 10910 10909 10907 10904 10901 10899 10898 10897 10898 10898 10897 10895 10893 10892 10891 10889 10888 10885 10883 10880 10876 10875 10875 10873 10870 10868 10870 10871 10868 10866 10864 10863 10862 10861 10859 10858 10857 10857 10856 10854 10852 10851 10850 10848 10846 10844 10843 10840 10837 10835 10833 10831 10828 10825 10821
10895 10897 10898 10900 10901 10903 10904 10904 10905 10906 10906 10906 10907 10908 10908 10909 10909 10910 10910 10910 10910 10909 10909 10908 10907 10905 10905 10904 10904 10904 10902 10902 10901 10898 10895 10893 10891 10890 10891 10891 10889 10888 10887 10887 10886 10884 10883 10880 10878 10875 10871 10868 10868 10869 10866 10864 10864 10865 10864 10862 10860 10859 10859 10858 10856 10854 10852 10850 10849 10849 10847 10846 10846 10844 10842 10840 10838 10835 10832 10829 10826 10823 10820 10817 10813
10890 10891 10893 10894 10895 10897 10897 10898 10898 10899 10899 10900 10900 10901 10901 10902 10902 10903 10903 10903 10903 10902 10902 10902 10901 10900 10899 10898 10898 10897 10896 10896 10895 10893 10890 10887 10884 10884 10884 10884 10882 10881 10882 10882 10880 10879 10877 10874 10873 10871 10866 10862 10862 10863 10862 10860 10859 10859 10859 10858 10857 10856 10855 10854 10853 10851 10848 10845 10845 10845 10844 10842 10841 10840 10837 10835 10833 10830 10827 10824 10821 10816 10813 10811 10806
10884 10886 10887 10888 10889 10890 10891 10892 10893 10893 10894 10894 10894 10894 10894 10895 10896 10896 10896 10897 10896 10896 10896 10896 10895 10895 10894 10893 10892 10891 10890 10889 10889 10887 10884 10881 10879 10877 10877 10876 10875 10875 10876 10875 10873 10872 10871 10869 10867 10865 10862 10858 10857 10858 10858 10857 10855 10854 10854 10854 10854 10853 10851 10851 10850 10847 10845 10843 10842 10841 10840 10838 10837 10836 10833 10830 10827 10824 10821 10819 10816 10812 10808 10804 10800
10880 10881 10882 10882 10883 10884 10886 10886 10887 10888 10888 10888 10888 10888 10889 10890 10890 10891 10891 10891 10890 10890 10890 10890 10890 10889 10888 10888 10887 10886 10885 10884 10883 10881 10878 10875 10873 10871 10870 10869 10868 10868 10868 10867 10865 10864 10864 10863 10861 10859 10857 10854 10852 10853 10854 10852 10851 10850 10850 10850 10851 10850 10848 10847 10846 10844 10843 10842 10839 10836 10835 10834 10832 10831 10829 10825 10822 10818 10816 10814 10812 10808 10802 10798 10795
10875 10875 10876 10876 10877 10878 10879 10880 10882 10882 10883 10883 10883 10883 10883 10884 10885 10885 10885 10885 10884 10884 10884 10884 10884 10883 10883 10882 10881 10880 10879 10878 10876 10875 10872 10868 10867 10865 10864 10862 10861 10860 10860 10859 10856 10855 10856 10855 10854 10853 10851 10848 10848 10849 10849 10848 10847 10846 10846 10846 10846 10845 10843 10842 10842 10840 10839 10838 10836 10833 10831 10829 10827 10825 10823 10820 10817 10813 10811 10809 10807 10803 10798 10793 10790
10869 10870 10871 10871 10872 10872 10873 10873 10875 10876 10876 10877 10877 10877 10877 10877 10878 10878 10878 10878 10878 10877 10877 10878 10878 10877 10876 10876 10875 10875 10874 10872 10870 10868 10867 10864 10861 10859 10858 10856 10855 10854 10852 10850 10847 10845 10846 10847 10847 10847 10845 10843 10843 10843 10843 10842 10842 10841 10841 10841 10840 10840 10838 10837 10838 10836 10833 10832 10832 10830 10827 10825 10823 10821 10818 10815 10813 10809 10805 10803 10801 10798 10795 10791 10786
10864 10865 10866 10866 10867 10867 10867 10868 10868 10869 10870 10870 10870 10871 10871 10871 10871 10870 10870 10870 10871 10871 10871 10871 10871 10870 10870 10869 10869 10868 10867 10865 10863 10861 10861 10860 10857 10854 10852 10849 10847 10846 10845 10843 10839 10835 10835 10838 10840 10841 10840 10839 10837 10836 10834 10833 10832 10833 10834 10833 10833 10833 10832 10831 10832 10831 10828 10826 10826 10825 10823 10821 10818 10816 10813 10810 10808 10805 10801 10798 10796 10793 10791 10787 10783
10860 10860 10861 10862 10863 10863 10863 10863 10864 10864 10865 10865 10865 10865 10865 10865 10865 10864 10864 10865 10865 10865 10864 10864 10864 10864 10863 10863 10863 10862 10860 10859 10856 10854 10855 10855 10852 10849 10846 10844 10841 10839 10838 10836 10832 10828 10826 10828 10831 10834 10834 10831 10829 10828 10825 10822 10821 10824 10826 10825 10825 10825 10825 10824 10825 10825 10823 10820 10820 10819 10818 10816 10814 10812 10809 10806 10804 10801 10797 10794 10792 10789 10786 10783 10779
10854 10855 10856 10857 10857 10858 10858 10858 10859 10859 10859 10860 10860 10860 10860 10859 10859 10858 10859 10860 10860 10859 10858 10858 10857 10857 10856 10856 10855 10855 10854 10852 10849 10847 10848 10848 10846 10843 10841 10839 10836 10834 10831 10828 10824 10821 10819 10819 10822 10825 10824 10822 10821 10820 10816 10812 10813 10816 10817 10817 10816 10817 10817 10816 10817 10818 10816 10814 10814 10813 10812 10810 10808 10806 10804 10802 10800 10796 10793 10790 10787 10785 10782 10778 10774
10849 10850 10851 10851 10851 10852 10852 10852 10853 10853 10854 10854 10855 10854 10854 10854 10853 10853 10854 10854 10854 10853 10852 10851 10850 10849 10849 10848 10848 10848 10847 10844 10841 10839 10839 10838 10837 10836 10836 10833 10830 10828 10825 10820 10816 10815 10814 10813 10814 10814 10814 10814 10814 10813 10809 10806 10806 10808 10809 10810 10810 10810 10810 10810 10810 10809 10808 10806 10807 10807 10805 10804 10803 10800 10799 10797 10795 10792 10788 10785 10782 10780 10777 10774 10769
10843 10843 10844 10845 10845 10845 10846 10846 10846 10847 10848 10848 10848 10848 10848 10848 10847 10847 10847 10847 10847 10846 10845 10844 10843 10843 10842 10841 10840 10840 10840 10837 10835 10833 10831 10830 10829 10828 10828 10827 10825 10822 10818 10812 10809 10809 10807 10805 10805 10806 10805 10805 10807 10805 10802 10800 10799 10799 10801 10802 10802 10803 10803 10802 10801 10800 10800 10800 10800 10800 10799 10798 10797 10794 10792 10791 10789 10787 10784 10780 10777 10775 10772 10768 10764
10836 10836 10837 10838 10838 10839 10839 10839 10840 10841 10841 10842 10841 10841 10841 10841 10841 10840 10840 10840 10840 10839 10838 10837 10836 10836 10835 10833 10832 10832 10832 10831 10829 10827 10825 10823 10822 10820 10820 10819 10818 10815 10811 10806 10804 10803 10800 10797 10797 10797 10796 10797 10799 10799 10797 10794 10792 10791 10791 10792 10794 10796 10796 10795 10793 10792 10792 10793 10794 10793 10793 10793 10790 10788 10787 10786 10783 10781 10778 10774 10771 10769 10766 10763 10759
10828 10829 10829 10830 10831 10832 10832 10833 10833 10834 10834 10834 10834 10834 10833 10833 10833 10833 10832 10832 10832 10832 10831 10830 10830 10829 10828 10827 10825 10824 10824 10824 10823 10822 10820 10817 10816 10814 10813 10811 10809 10806 10803 10800 10800 10799 10795 10790 10789 10789 10789 10789 10790 10791 10792 10790 10787 10785 10785 10785 10787 10788 10787 10786 10786 10785 10785 10787 10788 10787 10787 10787 10784 10782 10781 10780 10777 10775 10772 10767 10764 10762 10759 10756 10754
10820 10821 10821 10822 10823 10824 10825 10825 10825 10826 10826 10826 10826 10825 10825 10825 10824 10824 10824 10824 10824 10824 10823 10823 10823 10822 10821 10820 10819 10818 10817 10816 10815 10815 10813 10810 10809 10807 10806 10804 10801 10797 10794 10793 10794 10793 10790 10786 10783 10781 10781 10781 10781 10783 10783 10782 10780 10780 10780 10781 10783 10783 10780 10776 10777 10780 10781 10781 10782 10781 10779 10779 10779 10776 10774 10773 10771 10769 10766 10762 10758 10756 10753 10751 10748
10813 10814 10814 10815 10816 10816 10817 10817 10817 10817 10817 10817 10817 10817 10816 10816 10816 10816 10816 10816 10815 10815 10815 10814 10814 10814 10813 10812 10812 10812 10811 10809 10808 10807 10806 10803 10801 10800 10798 10796 10794 10790 10787 10786 10787 10786 10785 10782 10778 10775 10773 10772 10773 10774 10774 10773 10772 10772 10775 10776 10777 10777 10775 10771 10771 10776 10779 10779 10778 10776 10772 10772 10772 10770 10767 10767 10765 10762 10759 10755 10753 10750 10747 10745 10743
10806 10807 10807 10808 10808 10808 10808 10808 10808 10808 10808 10808 10808 10808 10808 10808 10808 10808 10808 10808 10808 10807 10807 10806 10806 10805 10804 10803 10804 10804 10803 10802 10801 10800 10798 10796 10794 10793 10791 10789 10787 10784 10781 10780 10780 10780 10779 10776 10773 10770 10767 10765 10765 10765 10765 10767 10767 10766 10769 10773 10773 10772 10772 10768 10767 10773 10776 10774 10771 10769 10766 10765 10765 10763 10761 10760 10759 10755 10752 10750 10748 10746 10742 10739 10737
10798 10799 10800 10800 10800 10800 10800 10800 10800 10800 10800 10800 10800 10800 10800 10800 10800 10800 10800 10800 10800 10799 10799 10799 10798 10797 10796 10796 10796 10795 10794 10794 10792 10791 10790 10787 10785 10785 10784 10782 10780 10778 10776 10774 10774 10774 10773 10771 10767 10764 10761 10760 10759 10758 10759 10763 10764 10762 10764 10769 10770 10770 10769 10767 10765 10767 10769 10766 10763 10761 10760 10758 10758 10756 10754 10754 10752 10749 10747 10745 10743 10741 10737 10733 10731
10790 10791 10791 10791 10792 10792 10792 10792 10792 10792 10791 10792 10792 10792 10792 10792 10792 10792 10792 10792 10791 10790 10790 10790 10789 10788 10787 10787 10786 10785 10784 10783 10783 10782 10780 10778 10776 10775 10775 10774 10773 10772 10770 10769 10768 10767 10765 10764 10761 10757 10754 10753 10753 10751 10751 10755 10759 10759 10760 10764 10766 10765 10763 10762 10761 10761 10761 10759 10756 10754 10753 10752 10751 10749 10747 10747 10746 10743 10741 10739 10737 10734 10731 10728 10725
10781 10782 10782 10783 10783 10783 10783 10783 10783 10783 10783 10783 10783 10783 10783 10783 10783 10783 10783 10783 10782 10781 10780 10779 10778 10778 10776 10776 10775 10774 10773 10772 10772 10771 10770 10769 10767 10765 10766 10766 10766 10765 10764 10763 10762 10759 10758 10757 10755 10751 10748 10747 10745 10744 10745 10748 10752 10755 10757 10760 10761 10759 10755 10755 10755 10754 10752 10751 10749 10747 10746 10745 10744 10743 10741 10740 10739 10737 10735 10732 10730 10727 10724 10720 10718
10772 10772 10773 10773 10773 10773 10774 10774 10774 10774 10774 10774 10774 10774 10774 10773 10773 10773 10773 10773 10772 10771 10770 10769 10768 10768 10766 10765 10765 10764 10762 10761 10760 10759 10759 10760 10758 10756 10756 10757 10757 10756 10757 10758 10757 10753 10750 10750 10749 10745 10742 10741 10739 10738 10740 10743 10745 10747 10749 10753 10755 10753 10750 10749 10748 10745 10743 10743 10742 10740 10739 10738 10737 10737 10735 10734 10732 10731 10729 10725 10723 10720 10717 10714 10711
10762 10762 10763 10763 10763 10764 10764 10765 10765 10765 10765 10764 10764 10764 10764 10763 10763 10763 10763 10763 10763 10762 10761 10760 10759 10758 10757 10757 10756 10755 10753 10751 10749 10748 10748 10749 10749 10748 10749 10748 10747 10747 10749 10751 10751 10747 10744 10744 10743 10740 10739 10739 10738 10737 10738 10740 10741 10742 10744 10747 10748 10747 10744 10742 10738 10735 10734 10734 10734 10733 10733 10731 10731 10731 10730 10727 10726 10725 10723 10718 10715 10713 10710 10707 10705
10753 10752 10752 10753 10754 10754 10755 10755 10755 10755 10755 10754 10754 10754 10754 10753 10753 10754 10754 10754 10754 10753 10752 10751 10749 10749 10748 10748 10748 10746 10743 10740 10738 10737 10738 10738 10738 10739 10740 10740 10738 10739 10740 10741 10742 10742 10740 10738 10736 10733 10733 10734 10734 10734 10736 10738 10739 10740 10741 10741 10740 10738 10734 10731 10729 10727 10727 10727 10727 10727 10726 10724 10724 10724 10722 10720 10719 10718 10715 10712 10709 10706 10704 10701 10698
10743 10743 10743 10744 10744 10744 10744 10745 10745 10745 10745 10745 10745 10745 10744 10744 10744 10744 10745 10745 10745 10744 10743 10742 10741 10740 10740 10739 10739 10737 10734 10731 10729 10728 10727 10727 10727 10729 10730 10730 10729 10731 10733 10734 10734 10735 10734 10731 10728 10728 10729 10731 10732 10732 10733 10733 10734 10734 10733 10731 10729 10727 10725 10723 10722 10721 10721 10721 10720 10719 10718 10717 10717 10716 10715 10713 10712 10710 10707 10705 10702 10699 10697 10694 10691
10733 10733 10734 10733 10733 10733 10734 10735 10735 10735 10736 10735 10735 10735 10735 10735 10735 10735 10736 10736 10736 10735 10734 10734 10733 10732 10731 10730 10729 10727 10725 10723 10721 10719 10718 10716 10717 10718 10720 10720 10720 10722 10725 10727 10728 10729 10727 10723 10721 10723 10726 10728 10728 10728 10727 10725 10725 10724 10722 10720 10719 10718 10717 10716 10715 10714 10714 10713 10712 10711 10711 10710 10710 10709 10708 10706 10704 10702 10700 10697 10694 10692 10689 10687 10684
10724 10724 10723 10723 10723 10723 10724 10725 10725 10726 10725 10725 10725 10726 10726 10726 10726 10726 10726 10727 10727 10726 10726 10725 10724 10722 10722 10721 10719 10717 10716 10714 10712 10710 10709 10707 10706 10708 10711 10711 10711 10713 10716 10719 10721 10722 10721 10718 10716 10717 10719 10718 10717 10715 10714 10713 10713 10713 10711 10710 10710 10710 10709 10708 10707 10706 10706 10706 10705 10704 10703 10703 10702 10701 10700 10698 10696 10694 10691 10688 10685 10683 10681 10679 10676
10713 10713 10713 10713 10714 10714 10714 10715 10716 10715 10715 10715 10715 10716 10716 10717 10717 10716 10717 10717 10717 10716 10716 10715 10713 10712 10712 10711 10709 10708 10706 10705 10702 10701 10700 10698 10696 10698 10701 10703 10702 10703 10707 10710 10712 10713 10714 10712 10711 10711 10711 10710 10709 10706 10704 10703 10703 10702 10702 10702 10703 10702 10702 10701 10700 10700 10699 10698 10697 10696 10695 10695 10694 10693 10692 10690 10687 10685 10683 10679 10676 10674 10673 10670 10668
10702 10703 10703 10704 10704 10703 10704 10705 10705 10705 10704 10705 10705 10705 10705 10706 10706 10706 10706 10706 10706 10706 10706 10705 10703 10702 10702 10702 10700 10698 10697 10695 10693 10692 10691 10690 10688 10688 10691 10694 10694 10695 10697 10700 10702 10704 10705 10705 10704 10703 10702 10701 10700 10698 10696 10695 10694 10694 10695 10696 10696 10695 10694 10694 10693 10693 10692 10690 10689 10688 10687 10686 10685 10684 10683 10680 10678 10675 10673 10671 10668 10666 10664 10662 10659
10692 10692 10693 10693 10693 10693 10693 10693 10694 10694 10694 10694 10695 10694 10694 10694 10694 10695 10695 10695 10694 10694 10694 10694 10693 10692 10692 10692 10691 10689 10687 10685 10683 10682 10681 10681 10679 10678 10680 10683 10684 10685 10687 10689 10692 10694 10695 10695 10695 10695 10694 10693 10693 10692 10690 10689 10689 10688 10688 10688 10687 10687 10687 10686 10685 10684 10683 10682 10681 10680 10679 10677 10676 10674 10672 10671 10668 10666 10664 10662 10659 10657 10655 10653 10651
10682 10682 10683 10683 10682 10682 10681 10681 10681 10682 10682 10683 10684 10683 10683 10683 10683 10683 10683 10682 10682 10682 10682 10683 10682 10682 10681 10681 10680 10679 10677 10675 10674 10672 10671 10671 10670 10669 10670 10672 10673 10674 10676 10678 10680 10682 10684 10684 10685 10685 10684 10684 10685 10685 10684 10684 10682 10680 10679 10679 10679 10678 10677 10676 10675 10674 10673 10672 10672 10670 10669 10668 10666 10664 10662 10660 10658 10656 10654 10652 10650 10647 10645 10643 10641
10672 10672 10672 10672 10671 10670 10670 10669 10669 10670 10670 10672 10673 10672 10672 10672 10671 10671 10671 10671 10671 10670 10671 10671 10671 10671 10670 10670 10670 10669 10667 10666 10664 10663 10661 10661 10661 10660 10659 10660 10661 10663 10665 10667 10669 10671 10672 10673 10673 10673 10673 10673 10673 10674 10674 10672 10671 10670 10671 10670 10669 10668 10667 10666 10665 10664 10663 10662 10661 10660 10659 10657 10656 10654 10652 10650 10648 10646 10644 10641 10639 10637 10635 10632 10631
10662 10662 10662 10661 10660 10660 10659 10658 10658 10658 10659 10660 10661 10661 10661 10661 10661 10660 10660 10660 10660 10660 10659 10660 10660 10660 10660 10660 10660 10659 10658 10657 10656 10654 10652 10652 10652 10651 10650 10649 10650 10651 10652 10654 10657 10659 10660 10660 10660 10661 10661 10661 10660 10661 10661 10660 10660 10660 10661 10660 10659 10658 10657 10655 10654 10653 10653 10652 10651 10650 10648 10646 10645 10643 10642 10639 10637 10636 10634 10631 10629 10627 10625 10623 10621
10651 10651 10651 10651 10651 10650 10649 10648 10647 10647 10648 10648 10649 10649 10649 10649 10649 10649 10649 10649 10649 10649 10649 10648 10649 10649 10649 10649 10649 10649 10648 10647 10647 10645 10644 10642 10642 10642 10641 10640 10639 10640 10640 10641 10643 10646 10648 10648 10647 10647 10648 10649 10648 10646 10646 10646 10647 10649 10650 10649 10648 10647 10645 10644 10643 10642 10642 10640 10639 10638 10637 10635 10633 10632 10631 10628 10626 10625 10624 10621 10619 10617 10615 10613 10611